• en Belgique
  • Liste des pays
  • À 7 jours
  • Température de l'eau
  • Carte satellitaire
  • Carte météo
  • Widgets météo
  • user-avatar
    Se connecter

    Météo par heure à Icatu

    Ce jour, 23 Septembre, Dimanche

    Heure Température Précipitation Vent Pression Humidité
    00:00 +27°C° 0 mm 3 m/s 755 mmHg 85%
    01:00 +27°C° 0 mm 3 m/s 755 mmHg 86%
    02:00 +26°C° 0 mm 2 m/s 755 mmHg 87%
    03:00 +26°C° 0 mm 2 m/s 755 mmHg 88%
    04:00 +26°C° 0 mm 2 m/s 755 mmHg 88%
    05:00 +26°C° 0 mm 2 m/s 755 mmHg 88%
    06:00 +26°C° 0 mm 2 m/s 755 mmHg 88%
    07:00 +27°C° 0 mm 3 m/s 755 mmHg 82%
    08:00 +29°C° 0 mm 3 m/s 756 mmHg 76%
    09:00 +30°C° 0 mm 3 m/s 756 mmHg 70%
    10:00 +31°C° 0 mm 3 m/s 756 mmHg 66%
    11:00 +33°C° 0 mm 3 m/s 756 mmHg 63%
    12:00 +33°C° 0 mm 3 m/s 756 mmHg 60%
    13:00 +34°C° 0 mm 3 m/s 755 mmHg 57%
    14:00 +35°C° 0 mm 3 m/s 754 mmHg 55%
    15:00 +35°C° 0 mm 3 m/s 753 mmHg 52%
    16:00 +34°C° 0 mm 3 m/s 754 mmHg 58%
    17:00 +31°C° 0 mm 3 m/s 754 mmHg 64%
    18:00 +30°C° 0 mm 3 m/s 754 mmHg 70%
    19:00 +29°C° 0 mm 3 m/s 754 mmHg 75%
    20:00 +28°C° 0 mm 3 m/s 755 mmHg 79%
    21:00 +27°C° 0 mm 3 m/s 756 mmHg 83%
    22:00 +27°C° 0 mm 3 m/s 756 mmHg 84%
    23:00 +27°C° 0 mm 3 m/s 756 mmHg 85%

    Demain, 24 Septembre, Lundi

    Heure Température Précipitation Vent Pression Humidité
    00:00 +27°C° 0 mm 2 m/s 756 mmHg 87%
    01:00 +27°C° 0 mm 2 m/s 756 mmHg 88%
    02:00 +26°C° 0 mm 2 m/s 755 mmHg 88%
    03:00 +26°C° 0 mm 2 m/s 755 mmHg 89%
    04:00 +26°C° 0 mm 2 m/s 755 mmHg 88%
    05:00 +26°C° 0 mm 2 m/s 755 mmHg 87%
    06:00 +26°C° 0 mm 2 m/s 755 mmHg 87%
    07:00 +27°C° 0 mm 3 m/s 756 mmHg 81%
    08:00 +29°C° 0 mm 3 m/s 757 mmHg 75%
    09:00 +30°C° 0 mm 4 m/s 757 mmHg 69%
    10:00 +33°C° 0 mm 4 m/s 757 mmHg 61%
    11:00 +35°C° 0 mm 3 m/s 756 mmHg 52%
    12:00 +37°C° 0 mm 3 m/s 756 mmHg 44%
    13:00 +36°C° 0 mm 3 m/s 755 mmHg 46%
    14:00 +36°C° 0 mm 3 m/s 754 mmHg 49%
    15:00 +35°C° 0 mm 3 m/s 753 mmHg 51%
    16:00 +34°C° 0 mm 3 m/s 753 mmHg 57%
    17:00 +31°C° 0 mm 3 m/s 753 mmHg 62%
    18:00 +30°C° 0 mm 3 m/s 753 mmHg 68%
    19:00 +29°C° 0 mm 3 m/s 754 mmHg 72%
    20:00 +28°C° 0 mm 3 m/s 755 mmHg 76%
    21:00 +28°C° 0 mm 3 m/s 756 mmHg 81%
    22:00 +27°C° 0 mm 3 m/s 756 mmHg 83%
    23:00 +27°C° 0 mm 3 m/s 756 mmHg 85%

    Après-demain, 25 Septembre, Mardi

    Heure Température Précipitation Vent Pression Humidité
    00:00 +27°C° 0 mm 2 m/s 756 mmHg 87%
    01:00 +27°C° 0 mm 3 m/s 755 mmHg 86%
    02:00 +27°C° 0 mm 3 m/s 755 mmHg 86%
    03:00 +27°C° 0 mm 3 m/s 754 mmHg 85%
    04:00 +27°C° 0 mm 3 m/s 755 mmHg 85%
    05:00 +27°C° 0 mm 3 m/s 755 mmHg 85%
    06:00 +27°C° 0 mm 3 m/s 755 mmHg 85%
    07:00 +28°C° 0 mm 3 m/s 755 mmHg 78%
    08:00 +30°C° 0 mm 3 m/s 756 mmHg 71%
    09:00 +32°C° 0 mm 4 m/s 756 mmHg 64%
    10:00 +34°C° 0 mm 3 m/s 756 mmHg 57%
    11:00 +36°C° 0 mm 3 m/s 755 mmHg 49%
    12:00 +38°C° 0 mm 3 m/s 755 mmHg 42%
    13:00 +37°C° 0 mm 3 m/s 754 mmHg 45%
    14:00 +36°C° 0 mm 3 m/s 753 mmHg 47%
    15:00 +35°C° 0 mm 3 m/s 752 mmHg 50%
    16:00 +34°C° 0 mm 3 m/s 753 mmHg 56%
    17:00 +31°C° 0 mm 3 m/s 753 mmHg 63%
    18:00 +30°C° 0 mm 4 m/s 753 mmHg 69%
    19:00 +29°C° 0 mm 4 m/s 754 mmHg 72%
    20:00 +29°C° 0 mm 3 m/s 754 mmHg 76%
    21:00 +28°C° 0 mm 3 m/s 755 mmHg 79%
    22:00 +28°C° 0 mm 3 m/s 755 mmHg 80%
    23:00 +28°C° 0 mm 3 m/s 755 mmHg 82%

    26 Septembre, Mercredi

    Heure Température Précipitation Vent Pression Humidité
    00:00 +27°C° 0 mm 3 m/s 755 mmHg 83%
    01:00 +27°C° 0 mm 3 m/s 755 mmHg 83%
    02:00 +27°C° 0 mm 3 m/s 754 mmHg 83%
    03:00 +27°C° 0 mm 3 m/s 754 mmHg 83%
    04:00 +27°C° 0 mm 3 m/s 754 mmHg 81%
    05:00 +28°C° 0 mm 3 m/s 754 mmHg 80%
    06:00 +28°C° 0 mm 4 m/s 755 mmHg 78%
    07:00 +29°C° 0 mm 4 m/s 755 mmHg 73%
    08:00 +30°C° 0 mm 4 m/s 756 mmHg 68%
    09:00 +32°C° 0 mm 4 m/s 756 mmHg 63%
    10:00 +34°C° 0 mm 4 m/s 756 mmHg 56%
    11:00 +36°C° 0 mm 4 m/s 755 mmHg 50%
    12:00 +37°C° 0 mm 3 m/s 754 mmHg 44%
    13:00 +37°C° 0 mm 3 m/s 754 mmHg 45%
    14:00 +36°C° 0 mm 3 m/s 753 mmHg 47%
    15:00 +36°C° 0 mm 3 m/s 752 mmHg 48%
    16:00 +34°C° 0 mm 4 m/s 753 mmHg 54%
    17:00 +33°C° 0 mm 4 m/s 753 mmHg 60%
    18:00 +30°C° 0 mm 4 m/s 753 mmHg 66%
    19:00 +29°C° 0 mm 4 m/s 754 mmHg 70%
    20:00 +29°C° 0 mm 3 m/s 754 mmHg 74%
    21:00 +28°C° 0 mm 3 m/s 755 mmHg 78%
    22:00 +28°C° 0 mm 3 m/s 755 mmHg 80%
    23:00 +27°C° 0 mm 3 m/s 755 mmHg 81%

    27 Septembre, Jeudi

    Heure Température Précipitation Vent Pression Humidité
    00:00 +27°C° 0 mm 3 m/s 755 mmHg 82%
    01:00 +27°C° 0 mm 3 m/s 754 mmHg 82%
    02:00 +27°C° 0 mm 3 m/s 754 mmHg 83%
    03:00 +27°C° 0 mm 3 m/s 754 mmHg 83%
    04:00 +27°C° 0 mm 3 m/s 754 mmHg 83%
    05:00 +27°C° 0 mm 3 m/s 754 mmHg 82%
    06:00 +27°C° 0 mm 4 m/s 755 mmHg 82%
    07:00 +28°C° 0 mm 4 m/s 755 mmHg 76%
    08:00 +29°C° 0 mm 4 m/s 756 mmHg 71%
    09:00 +32°C° 0 mm 4 m/s 756 mmHg 66%
    10:00 +33°C° 0 mm 4 m/s 756 mmHg 61%
    11:00 +34°C° 0 mm 4 m/s 755 mmHg 56%
    12:00 +35°C° 0 mm 4 m/s 755 mmHg 52%
    13:00 +35°C° 0 mm 4 m/s 754 mmHg 51%
    14:00 +35°C° 0 mm 4 m/s 754 mmHg 51%
    15:00 +35°C° 0 mm 4 m/s 753 mmHg 51%
    16:00 +34°C° 0 mm 4 m/s 753 mmHg 56%
    17:00 +33°C° 0 mm 4 m/s 753 mmHg 61%
    18:00 +30°C° 0 mm 4 m/s 754 mmHg 66%
    19:00 +29°C° 0 mm 4 m/s 754 mmHg 69%
    20:00 +29°C° 0 mm 4 m/s 755 mmHg 73%
    21:00 +28°C° 0 mm 4 m/s 755 mmHg 77%
    22:00 +28°C° 0 mm 4 m/s 755 mmHg 77%
    23:00 +28°C° 0 mm 3 m/s 755 mmHg 78%

    28 Septembre, Vendredi

    Heure Température Précipitation Vent Pression Humidité
    00:00 +27°C° 0 mm 3 m/s 755 mmHg 79%
    01:00 +27°C° 0 mm 3 m/s 754 mmHg 79%
    02:00 +27°C° 0 mm 3 m/s 754 mmHg 79%
    03:00 +27°C° 0 mm 3 m/s 754 mmHg 80%
    04:00 +27°C° 0 mm 3 m/s 754 mmHg 80%
    05:00 +26°C° 0 mm 3 m/s 754 mmHg 81%
    06:00 +26°C° 0 mm 4 m/s 755 mmHg 82%
    07:00 +28°C° 0 mm 4 m/s 755 mmHg 73%
    08:00 +30°C° 0 mm 4 m/s 756 mmHg 64%
    09:00 +33°C° 0 mm 4 m/s 756 mmHg 55%
    10:00 +34°C° 0 mm 4 m/s 756 mmHg 49%
    11:00 +36°C° 0 mm 4 m/s 755 mmHg 43%
    12:00 +38°C° 0 mm 4 m/s 755 mmHg 36%
    13:00 +38°C° 0 mm 4 m/s 754 mmHg 37%
    14:00 +37°C° 0 mm 4 m/s 754 mmHg 38%
    15:00 +37°C° 0 mm 4 m/s 753 mmHg 39%
    16:00 +35°C° 0 mm 5 m/s 753 mmHg 47%
    17:00 +33°C° 0 mm 5 m/s 753 mmHg 54%
    18:00 +30°C° 0 mm 5 m/s 753 mmHg 62%
    19:00 +29°C° 0 mm 4 m/s 754 mmHg 65%
    20:00 +29°C° 0 mm 4 m/s 754 mmHg 68%
    21:00 +28°C° 0 mm 4 m/s 754 mmHg 72%
    22:00 +28°C° 0 mm 4 m/s 754 mmHg 73%
    23:00 +27°C° 0 mm 3 m/s 754 mmHg 74%
    Voir plus